Date String (YYYY-MM-DD hh:mm:ss) UTC,Instrument flags,Ambient pressure (hPa),Sample flow (lpm),Bypass flow (lpm),Sample temperature (°C),Ambient temperature (°C),ASC tube jacket temperature (°C),LED temperature (°C),Box temperature (°C),Sample RH (%),Span deviation,Mass concentration (μg/m³),Mass concentration (μg/m³),Mass concentration (μg/m³)
DateTimeUTC,F1_M11,P_M11,Q1_M11,Q2_M11,T1_M11,T2_M11,T3_M11,T4_M11,T5_M11,U1_M11,ZSPAN_M11,X0_M11,X2_M11,X1_M11
2022-03-20 19:00:00,,0817.5,5.01,0.00,27.1,26.3,00.0,35.8,29.0,09.9,0000.0,0014.86,0007.08,0005.53
2022-03-20 19:01:00,,0817.5,5.01,0.00,27.1,26.3,00.0,35.9,29.0,09.7,0000.0,0014.73,0007.14,0005.60
2022-03-20 19:02:00,,0817.5,4.98,0.00,27.1,26.3,00.0,35.9,29.0,09.4,0000.0,0015.02,0007.16,0005.66
2022-03-20 19:03:00,,0817.5,5.01,0.00,27.1,26.3,00.0,35.9,29.0,09.0,0000.0,0015.19,0007.16,0005.67
2022-03-20 19:04:00,,0817.5,4.99,0.00,27.1,26.3,00.0,35.9,29.0,09.4,0000.4,0014.91,0007.15,0005.66
2022-03-20 19:05:00,,0817.4,4.99,0.00,27.2,26.4,00.0,35.9,29.0,09.2,0002.0,0014.16,0007.20,0005.65
2022-03-20 19:06:00,,0817.4,5.00,0.00,27.2,26.4,00.0,36.0,29.0,09.3,0000.7,0013.96,0007.17,0005.59
2022-03-20 19:07:00,,0817.4,5.02,0.00,27.2,26.4,00.0,36.0,29.1,09.8,0000.9,0014.44,0007.17,0005.58
2022-03-20 19:08:00,,0817.4,5.00,0.00,27.2,26.4,00.0,36.0,29.1,09.7,0000.0,0014.23,0007.15,0005.58
2022-03-20 19:09:00,,0817.4,4.99,0.00,27.2,26.4,00.0,36.0,29.1,09.1,0000.0,0014.39,0007.10,0005.51
2022-03-20 19:10:00,,0817.4,5.00,0.00,27.3,26.5,00.0,36.0,29.1,08.5,0000.0,0014.76,0007.06,0005.42
2022-03-20 19:11:00,,0817.4,5.01,0.00,27.3,26.5,00.0,36.1,29.1,08.4,0000.0,0014.74,0006.94,0005.32
2022-03-20 19:12:00,,0817.2,5.00,0.00,27.3,26.5,00.0,36.1,29.2,08.2,0000.0,0014.93,0006.79,0005.24
2022-03-20 19:13:00,,0817.2,5.00,0.00,27.3,26.6,00.0,36.1,29.2,08.1,0000.0,0014.59,0006.69,0005.15
2022-03-20 19:14:00,,0817.2,4.99,0.00,27.3,26.6,00.0,36.1,29.2,08.8,0000.0,0014.53,0006.64,0005.09
2022-03-20 19:15:00,,0817.2,4.99,0.00,27.3,26.6,00.0,36.1,29.2,09.0,0000.0,0014.80,0006.64,0005.11
2022-03-20 19:16:00,,0817.2,5.01,0.00,27.4,26.6,00.0,36.2,29.3,09.1,0000.0,0015.00,0006.64,0005.15
2022-03-20 19:17:00,,0817.3,5.00,0.00,27.4,26.6,00.0,36.2,29.3,08.8,0000.0,0015.06,0006.70,0005.28
2022-03-20 19:18:00,,0817.3,4.98,0.00,27.4,26.6,00.0,36.2,29.3,09.0,0000.0,0014.87,0006.77,0005.39
2022-03-20 19:19:00,,0817.3,5.01,0.00,27.4,26.7,00.0,36.2,29.3,09.1,0000.3,0015.50,0006.87,0005.47
2022-03-20 19:20:00,,0817.2,5.00,0.00,27.5,26.7,00.0,36.2,29.3,08.7,0001.8,0016.16,0007.07,0005.60
2022-03-20 19:21:00,,0817.1,4.98,0.00,27.5,26.7,00.0,36.3,29.3,08.5,0002.4,0016.38,0007.17,0005.69
2022-03-20 19:22:00,,0817.1,5.01,0.00,27.5,26.7,00.0,36.3,29.4,08.0,0002.6,0016.39,0007.26,0005.75
2022-03-20 19:23:00,,0817.1,4.99,0.00,27.5,26.8,00.0,36.3,29.4,07.9,0003.0,0016.10,0007.33,0005.74
2022-03-20 19:24:00,,0817.1,4.99,0.00,27.5,26.8,00.0,36.3,29.4,07.7,0002.8,0016.41,0007.35,0005.73
2022-03-20 19:25:00,,0817.0,5.01,0.00,27.6,26.8,00.0,36.3,29.4,07.5,0003.6,0016.49,0007.37,0005.70
2022-03-20 19:26:00,,0817.0,4.99,0.00,27.6,26.9,00.0,36.4,29.5,07.3,0004.9,0016.37,0007.34,0005.62
2022-03-20 19:27:00,,0817.0,4.99,0.00,27.6,26.9,00.0,36.4,29.5,07.4,0004.8,0016.12,0007.26,0005.52
2022-03-20 19:28:00,,0817.0,5.01,0.00,27.6,26.9,00.0,36.4,29.5,07.4,0003.9,0015.90,0007.18,0005.40
2022-03-20 19:29:00,,0817.0,5.00,0.00,27.7,27.0,00.0,36.4,29.5,07.4,0000.0,0015.49,0007.04,0005.24
2022-03-20 19:30:00,,0816.9,4.98,0.00,27.7,27.0,00.0,36.4,29.6,07.6,0000.0,0014.76,0006.88,0005.08
2022-03-20 19:31:00,,0817.0,5.01,0.00,27.7,27.0,00.0,36.5,29.6,07.9,0000.0,0013.80,0006.69,0004.94
2022-03-20 19:32:00,,0817.0,4.99,0.00,27.8,27.1,00.0,36.5,29.6,08.1,0000.0,0012.90,0006.51,0004.83
2022-03-20 19:33:00,,0817.0,5.00,0.00,27.8,27.1,00.0,36.5,29.7,07.8,0000.0,0012.72,0006.46,0004.78
2022-03-20 19:34:00,,0817.1,5.00,0.00,27.8,27.1,00.0,36.6,29.7,08.5,0000.0,0013.11,0006.52,0004.81
2022-03-20 19:35:00,,0817.1,4.99,0.00,27.8,27.1,00.0,36.6,29.7,08.1,0000.0,0013.62,0006.65,0004.89
2022-03-20 19:36:00,,0817.0,5.01,0.00,27.8,27.1,00.0,36.6,29.7,08.3,0000.0,0014.25,0006.65,0004.95
2022-03-20 19:37:00,,0817.4,5.00,0.00,27.8,27.1,00.0,36.6,29.7,08.5,0000.0,0013.96,0006.63,0005.01
2022-03-20 19:38:00,,0817.3,5.00,0.00,27.9,27.1,00.0,36.7,29.7,07.9,0000.0,0014.07,0006.66,0005.05
2022-03-20 19:39:00,,0817.2,5.00,0.00,27.9,27.1,00.0,36.7,29.7,07.3,0000.0,0015.15,0006.63,0005.04
2022-03-20 19:40:00,,0817.2,5.01,0.00,27.9,27.1,00.0,36.7,29.8,06.2,0000.0,0014.98,0006.48,0004.90
2022-03-20 19:41:00,,0817.1,4.98,0.00,27.9,27.1,00.0,36.7,29.8,06.1,0000.0,0014.94,0006.35,0004.75
2022-03-20 19:42:00,,0817.2,4.99,0.00,27.9,27.1,00.0,36.7,29.8,06.3,0000.0,0014.93,0006.19,0004.59
2022-03-20 19:43:00,,0817.0,5.01,0.00,27.9,27.1,00.0,36.7,29.8,06.8,0000.0,0015.13,0006.05,0004.41
2022-03-20 19:44:00,,0816.7,4.99,0.00,27.9,27.0,00.0,36.7,29.7,06.8,0000.0,0015.81,0005.90,0004.24
2022-03-20 19:45:00,,0816.8,5.02,0.00,27.9,27.0,00.0,36.7,29.7,07.3,0000.0,0015.44,0005.63,0004.05
2022-03-20 19:46:00,,0816.8,4.98,0.00,27.9,27.0,00.0,36.7,29.7,06.9,0000.0,0014.56,0005.33,0003.83
2022-03-20 19:47:00,,0816.8,5.02,0.00,27.9,27.0,00.0,36.8,29.7,05.7,0000.0,0013.85,0005.13,0003.60
2022-03-20 19:48:00,,0816.8,4.99,0.00,27.8,27.0,00.0,36.8,29.7,05.5,0000.0,0013.65,0004.90,0003.37
2022-03-20 19:49:00,,0817.0,5.00,0.00,27.8,27.0,00.0,36.8,29.6,05.5,0000.0,0013.11,0004.66,0003.15
2022-03-20 19:50:00,,0816.9,5.01,0.00,27.8,26.9,00.0,36.8,29.6,05.4,0000.0,0011.74,0004.45,0002.86
2022-03-20 19:51:00,,0816.8,4.98,0.00,27.8,27.0,00.0,36.8,29.6,05.6,0000.0,0011.66,0004.42,0002.77
2022-03-20 19:52:00,,0816.8,5.01,0.00,27.8,27.0,00.0,36.8,29.6,05.4,0000.0,0011.57,0004.39,0002.74
2022-03-20 19:53:00,,0816.7,4.99,0.00,27.8,27.0,00.0,36.8,29.6,05.5,0000.0,0011.59,0004.30,0002.70
2022-03-20 19:54:00,,0816.7,5.01,0.00,27.8,27.0,00.0,36.8,29.6,05.8,0000.0,0011.39,0004.22,0002.65
2022-03-20 19:55:00,,0816.7,4.99,0.00,27.9,27.0,00.0,36.8,29.7,05.9,0000.0,0010.59,0004.18,0002.57
2022-03-20 19:56:00,,0816.9,5.00,0.00,27.9,27.1,00.0,36.8,29.7,05.5,0000.0,0010.39,0004.18,0002.52
2022-03-20 19:57:00,,0816.5,5.01,0.00,27.9,27.1,00.0,36.8,29.7,06.1,0000.0,0010.31,0004.19,0002.47
2022-03-20 19:58:00,,0816.5,4.99,0.00,27.9,27.1,00.0,36.8,29.7,06.1,0000.0,0009.94,0004.20,0002.46
2022-03-20 19:59:00,,0816.5,5.01,0.00,27.9,27.0,00.0,36.8,29.7,05.9,0000.0,0010.15,0004.24,0002.48
